{"data":{"norad_id":36831,"intl_designator":"2010-037B","name":"RASCOM-QAF 1R","alt_names":[],"object_type":"PAYLOAD","status":"ACTIVE","operator":null,"country":"RASC","launch_date":"2010-08-04","launch_site_code":"FRGUI","launch_vehicle":null,"mission":null,"orbit_class":"UNKNOWN","rcs_meters":65.9677,"size_class":null,"mass_kg":null,"dimensions":null,"purposes":["comms"],"wikipedia_slug":null,"has_3d_model":false,"image_url":null,"decayed_at":null,"tle_current":{"epoch":"2026-09-19T13:33:41.524416Z","epoch_age_seconds":106572,"freshness":"FRESH","line1":"1 36831U 10037B   26262.56506394  .00000015  00000+0  00000+0 0  9992","line2":"2 36831   0.0276 117.5797 0005130  62.3211  24.9013  1.00272807 59256","mean_motion":1.00272807,"eccentricity":0.000513,"inclination_deg":0.0276,"raan_deg":117.5797,"arg_perigee_deg":62.3211,"mean_anomaly_deg":24.9013,"bstar":0,"rev_number":5925,"period_min":1436.0822670497,"perigee_km":35764.678099403,"apogee_km":35807.938820445,"semimajor_km":42164.445459924,"source":"CELESTRAK","updated_at":"2026-09-20T09:00:35.164921Z"}}}